Home   Weather   Catania   Past weeks

Flag for Italy Past Weather in Catania, Italy — Yesterday and Last 2 Weeks

Now
73 °F

Passing clouds.


Feels Like: 74 °F
Forecast: 64 / 85 °F
Wind: 9 mph from Northeast

Location: Catania / Fontanarossa

Current Time: Oct 1, 2016 at 8:58:29 PM

Latest Report: Oct 1, 2016 at 7:50 PM


Visibility: N/A

Pressure: 30.04 "Hg

Humidity: 78%

Dew Point: 66 °F

Location of CataniaLocation

Past Weather in Catania — Graph

°F

Catania Temperature Yesterday

Maximum temperature yesterday: 81 °F (at 12:50 PM)
Minimum temperature yesterday: 61 °F (at 3:20 AM)
Average temperature yesterday: 70 °F

High & Low Weather Summary for the Past Weeks

 TemperatureHumidityPressure
High86 °F (Sep 18, 12:20 PM)94% (Sep 18, 5:50 AM)30.33 "Hg (Sep 18, 5:50 AM)
Low57 °F (Sep 23, 4:50 AM)23% (Sep 19, 1:20 PM)29.77 "Hg (Sep 19, 4:20 PM)
Average71 °F67%30.07 "Hg
* Reported Sep 16 7:20 PM — Oct 1 7:20 PM, Catania, Weather by CustomWeather, © 2016

Note: Actual official high and low records may vary slightly from our data, if they occured in-between our weather recording intervals... More about our weather records

Advertising

Catania Weather History for the Previous 24 Hours

Scroll right to see more
 ConditionsComfort  
Time TempWeatherWind HumidityBarometerVisibility
7:20 PM
Sat, Oct 1
73 °FRain. Passing clouds.10 mph78%30.04 "HgN/A
6:50 PM73 °FPassing clouds.9 mph74%30.04 "HgN/A
6:20 PM75 °FPartly sunny.12 mph69%30.04 "HgN/A
5:50 PM75 °FPartly sunny.12 mph69%30.01 "HgN/A
5:20 PM75 °FBroken clouds.12 mph69%30.01 "HgN/A
4:50 PM75 °FScattered clouds.10 mph74%30.04 "HgN/A
4:20 PM75 °FScattered clouds.10 mph69%30.04 "HgN/A
3:50 PM75 °FPassing clouds.12 mph69%30.04 "HgN/A
3:20 PM75 °FPassing clouds.10 mph69%30.07 "HgN/A
2:50 PM75 °FPassing clouds.12 mph69%30.07 "HgN/A
2:20 PM75 °FScattered clouds.10 mph69%30.07 "HgN/A
1:50 PM75 °FScattered clouds.9 mph65%30.09 "HgN/A
1:20 PM75 °FScattered clouds.8 mph61%30.09 "HgN/A
12:50 PM75 °FScattered clouds.8 mph65%30.09 "HgN/A
12:20 PM75 °FPassing clouds.8 mph69%30.09 "HgN/A
11:50 AM75 °FSunny.8 mph65%30.09 "Hg10 mi
11:20 AM75 °FPassing clouds.6 mph69%30.09 "HgN/A
10:50 AM75 °FSunny.3 mph65%30.09 "Hg10 mi
10:20 AM75 °FSunny.2 mph65%30.09 "Hg10 mi
9:50 AM75 °FSunny.1 mph69%30.09 "Hg10 mi
9:20 AM70 °FClear.3 mph78%30.09 "Hg5 mi
8:50 AM70 °FClear.3 mph78%30.09 "Hg5 mi
8:20 AM68 °FClear.3 mph83%30.09 "Hg5 mi
7:50 AM66 °FClear.5 mph88%30.09 "Hg4 mi
7:20 AM64 °FClear.6 mph88%30.09 "Hg4 mi
6:50 AM64 °FClear.7 mph88%30.07 "Hg4 mi
6:20 AM64 °FClear.6 mph88%30.07 "Hg4 mi
5:50 AM64 °FPassing clouds.7 mph88%30.07 "Hg4 mi
5:20 AM64 °FPassing clouds.5 mph88%30.07 "Hg4 mi
4:50 AM64 °FFog.6 mph88%30.09 "Hg3 mi
4:20 AM64 °FFog.3 mph88%30.09 "Hg3 mi
3:50 AM64 °FFog.6 mph88%30.09 "Hg3 mi
3:20 AM64 °FPassing clouds.5 mph88%30.09 "Hg4 mi
2:50 AM68 °FPassing clouds.3 mph83%30.09 "HgN/A
2:20 AM70 °FPassing clouds.5 mph83%30.09 "HgN/A
1:50 AM70 °FPassing clouds.5 mph83%30.12 "HgN/A
1:20 AM70 °FPassing clouds.6 mph83%30.12 "HgN/A
12:50 AM68 °FPassing clouds.2 mph83%30.12 "HgN/A
12:20 AM70 °FPassing clouds.2 mph78%30.12 "HgN/A
11:50 PM
Fri, Sep 30
70 °FPassing clouds.No wind83%30.15 "HgN/A
11:20 PM70 °FPassing clouds.5 mph83%30.15 "HgN/A
10:50 PM70 °FPassing clouds.6 mph78%30.15 "HgN/A
10:20 PM70 °FPassing clouds.6 mph78%30.15 "HgN/A
9:50 PM72 °FPassing clouds.7 mph78%30.15 "HgN/A
9:20 PM73 °FPassing clouds.8 mph74%30.15 "HgN/A
8:50 PM73 °FPassing clouds.7 mph74%30.15 "HgN/A
8:20 PM73 °FPassing clouds.6 mph74%30.15 "HgN/A
Weather by CustomWeather, © 2016

See weather overviewHow to use our weather pages